timestamp,surface_pressure_avg,surface_temp_avg,battery_voltage,lat,long
2018-05-25 00:00:00+00:00,253.1464,5.15,13.29,47.84626,-54.09684
2018-05-25 00:10:00+00:00,245.9431,5.1,13.21,47.84626,-54.09684
2018-05-25 00:20:00+00:00,241.9014,5.1,13.21,47.84626,-54.09684
2018-05-25 00:30:00+00:00,240.3481,5.1,13.21,47.84626,-54.09684
2018-05-25 00:40:00+00:00,236.8864,5.1,13.21,47.84626,-54.09684
2018-05-25 00:50:00+00:00,231.1681,5.1,13.21,47.84626,-54.09684
2018-05-25 01:00:00+00:00,230.5864,5.09,13.05,47.84626,-54.09684
2018-05-25 01:10:00+00:00,230.8947,5.1,12.97,47.84626,-54.09684
2018-05-25 01:20:00+00:00,229.1697,5.07,13.05,47.84626,-54.09684
2018-05-25 01:30:00+00:00,226.7481,4.9,13.05,47.84626,-54.09684
2018-05-25 01:40:00+00:00,226.7214,4.8,13.05,47.84626,-54.09684
2018-05-25 01:50:00+00:00,226.9298,4.7,13.05,47.84626,-54.09684
2018-05-25 02:00:00+00:00,227.6513,4.58,13.05,47.84626,-54.09684
2018-05-25 02:10:00+00:00,229.6398,4.5,12.97,47.84626,-54.09684
2018-05-25 02:20:00+00:00,232.1097,4.5,12.97,47.84626,-54.09684
2018-05-25 02:30:00+00:00,230.9832,4.5,13.05,47.84626,-54.09684
2018-05-25 02:40:00+00:00,231.2848,4.5,13.05,47.84626,-54.09684
2018-05-25 02:50:00+00:00,234.7664,4.46,13.05,47.84626,-54.09684
2018-05-25 03:00:00+00:00,236.3981,4.5,12.97,47.84626,-54.09684
2018-05-25 03:10:00+00:00,232.5164,4.5,12.89,47.84626,-54.09684
2018-05-25 03:20:00+00:00,233.9547,4.5,12.97,47.84626,-54.09684
2018-05-25 03:30:00+00:00,239.7497,4.3,12.97,47.84626,-54.09684
2018-05-25 03:40:00+00:00,240.1231,4.2,12.97,47.84626,-54.09684
2018-05-25 03:50:00+00:00,237.5147,4.21,12.97,47.84626,-54.09684
2018-05-25 04:00:00+00:00,238.1497,4.3,12.97,47.84626,-54.09684
2018-05-25 04:10:00+00:00,243.6347,4.3,12.89,47.84626,-54.09684
2018-05-25 04:20:00+00:00,248.4715,4.28,12.97,47.84626,-54.09684
2018-05-25 04:30:00+00:00,250.9498,3.9,12.97,47.84626,-54.09684
2018-05-25 04:40:00+00:00,255.113,3.9,12.97,47.84626,-54.09684
2018-05-25 04:50:00+00:00,259.4981,3.9,12.97,47.84626,-54.09684
2018-05-25 05:00:00+00:00,262.8448,3.94,12.89,47.84626,-54.09684
2018-05-25 05:10:00+00:00,266.9181,4.0,12.81,47.84626,-54.09684
2018-05-25 05:20:00+00:00,273.6464,3.87,12.89,47.84626,-54.09684
2018-05-25 05:30:00+00:00,279.623,3.8,12.89,47.84626,-54.09684
2018-05-25 05:40:00+00:00,284.5031,3.8,12.97,47.84626,-54.09684
2018-05-25 05:50:00+00:00,292.7897,3.6,12.97,47.84626,-54.09684
2018-05-25 06:00:00+00:00,302.678,3.5,12.89,47.84626,-54.09684
2018-05-25 06:10:00+00:00,308.763,3.4,12.81,47.84626,-54.09684
2018-05-25 06:20:00+00:00,315.5446,3.4,12.89,47.84626,-54.09684
2018-05-25 06:30:00+00:00,322.1914,3.3,12.89,47.84626,-54.09684
2018-05-25 06:40:00+00:00,326.4797,3.4,12.89,47.84626,-54.09684
2018-05-25 06:50:00+00:00,328.4146,3.5,12.89,47.84626,-54.09684
2018-05-25 07:00:00+00:00,330.7864,3.57,12.89,47.84626,-54.09684
2018-05-25 07:10:00+00:00,331.9781,3.53,12.81,47.84626,-54.09684
2018-05-25 07:20:00+00:00,333.6497,3.55,12.89,47.84626,-54.09684
2018-05-25 07:30:00+00:00,340.3513,3.46,12.89,47.84626,-54.09684
2018-05-25 07:40:00+00:00,344.878,3.36,12.89,47.84626,-54.09684
2018-05-25 07:50:00+00:00,345.8229,3.4,12.89,47.84626,-54.09684
2018-05-25 08:00:00+00:00,346.4863,3.5,12.81,47.84626,-54.09684
2018-05-25 08:10:00+00:00,346.5148,3.47,12.81,47.84626,-54.09684
2018-05-25 08:20:00+00:00,346.4497,3.5,12.89,47.84626,-54.09684
2018-05-25 08:30:00+00:00,348.0063,3.54,12.89,47.84626,-54.09684
2018-05-25 08:40:00+00:00,345.7546,3.58,12.97,47.84626,-54.09684
2018-05-25 08:50:00+00:00,341.7546,3.6,12.97,47.84626,-54.09684
2018-05-25 09:00:00+00:00,340.9781,3.6,12.97,47.84626,-54.09684
2018-05-25 09:10:00+00:00,341.103,3.62,12.89,47.84626,-54.09684
2018-05-25 09:20:00+00:00,339.398,3.62,13.05,47.84626,-54.09684
2018-05-25 09:30:00+00:00,338.1863,3.55,13.05,47.84626,-54.09684
2018-05-25 09:40:00+00:00,337.1979,3.49,13.21,47.84626,-54.09684
2018-05-25 09:50:00+00:00,332.6396,3.65,13.29,47.84626,-54.09684
2018-05-25 10:00:00+00:00,327.7546,3.89,13.29,47.84626,-54.09684
2018-05-25 10:10:00+00:00,323.6163,3.8,13.29,47.84626,-54.09684
2018-05-25 10:20:00+00:00,318.2513,3.8,13.37,47.84626,-54.09684
2018-05-25 10:30:00+00:00,311.8663,3.8,13.53,47.84626,-54.09684
2018-05-25 10:40:00+00:00,302.1697,3.8,13.68,47.84626,-54.09684
2018-05-25 10:50:00+00:00,295.738,3.8,13.92,47.84626,-54.09684
2018-05-25 11:00:00+00:00,287.5247,3.9,14.08,47.84626,-54.09684
2018-05-25 11:10:00+00:00,280.368,3.9,14.24,47.84626,-54.09684
2018-05-25 11:20:00+00:00,276.1864,3.8,14.56,47.84626,-54.09684
2018-05-25 11:30:00+00:00,270.7464,3.82,14.96,47.84626,-54.09684
2018-05-25 11:40:00+00:00,263.2664,3.92,14.72,47.84626,-54.09684
2018-05-25 11:50:00+00:00,256.4664,4.0,14.72,47.84626,-54.09684
2018-05-25 12:00:00+00:00,249.2481,4.0,14.56,47.84626,-54.09684
2018-05-25 12:10:00+00:00,240.5398,4.1,14.72,47.84626,-54.09684
2018-05-25 12:20:00+00:00,231.8031,4.2,16.23,47.84626,-54.09684
2018-05-25 12:30:00+00:00,227.2614,4.2,14.72,47.84626,-54.09684
2018-05-25 12:40:00+00:00,223.0464,4.2,14.64,47.84626,-54.09684
2018-05-25 12:50:00+00:00,219.8097,4.2,15.04,47.84626,-54.09684
2018-05-25 13:00:00+00:00,217.843,4.2,14.56,47.84626,-54.09684
2018-05-25 13:10:00+00:00,214.7814,4.28,15.83,47.84626,-54.09684
2018-05-25 13:20:00+00:00,212.1515,4.3,14.8,47.84626,-54.09684
2018-05-25 13:30:00+00:00,213.2948,4.34,14.64,47.84626,-54.09684
2018-05-25 13:40:00+00:00,211.1231,4.38,14.72,47.84626,-54.09684
2018-05-25 13:50:00+00:00,206.2481,4.39,14.64,47.84626,-54.09684
2018-05-25 14:00:00+00:00,203.7014,4.39,14.48,47.84626,-54.09684
2018-05-25 14:10:00+00:00,202.2914,4.37,14.4,47.84626,-54.09684
2018-05-25 14:20:00+00:00,199.0198,4.2,14.4,47.84626,-54.09684
2018-05-25 14:30:00+00:00,197.2948,4.3,14.48,47.84626,-54.09684
2018-05-25 14:40:00+00:00,200.4114,4.11,14.48,47.84626,-54.09684
2018-05-25 14:50:00+00:00,199.3798,4.0,14.48,47.84626,-54.09684
2018-05-25 15:00:00+00:00,194.4732,4.09,14.48,47.84626,-54.09684
2018-05-25 15:10:00+00:00,196.4464,4.04,14.32,47.84626,-54.09684
2018-05-25 15:20:00+00:00,200.2931,4.0,14.48,47.84626,-54.09684
2018-05-25 15:30:00+00:00,197.4981,4.0,14.48,47.84626,-54.09684
2018-05-25 15:40:00+00:00,201.4398,4.04,14.4,47.84626,-54.09684
2018-05-25 15:50:00+00:00,210.2115,4.06,14.32,47.84626,-54.09684
2018-05-25 16:00:00+00:00,212.5565,4.1,14.32,47.84626,-54.09684
2018-05-25 16:10:00+00:00,214.7014,4.1,14.24,47.84626,-54.09684
2018-05-25 16:20:00+00:00,218.3164,4.2,14.32,47.84626,-54.09684
2018-05-25 16:30:00+00:00,222.4915,4.3,14.32,47.84626,-54.09684
2018-05-25 16:40:00+00:00,224.1265,4.35,14.4,47.84626,-54.09684
2018-05-25 16:50:00+00:00,225.7848,4.39,14.48,47.84626,-54.09684
2018-05-25 17:00:00+00:00,228.4547,4.4,14.4,47.84626,-54.09684
2018-05-25 17:10:00+00:00,234.9581,4.4,14.32,47.84626,-54.09684
2018-05-25 17:20:00+00:00,238.7881,4.4,14.4,47.84626,-54.09684
2018-05-25 17:30:00+00:00,242.4098,4.4,14.32,47.84626,-54.09684
2018-05-25 17:40:00+00:00,249.9264,4.4,14.32,47.84626,-54.09684
2018-05-25 17:50:00+00:00,259.0148,4.4,14.24,47.84626,-54.09684
2018-05-25 18:00:00+00:00,268.7514,4.3,14.16,47.84626,-54.09684
2018-05-25 18:10:00+00:00,275.6147,4.3,14.08,47.84626,-54.09684
2018-05-25 18:20:00+00:00,281.623,4.3,14.08,47.84626,-54.09684
2018-05-25 18:30:00+00:00,289.7314,4.3,14.08,47.84626,-54.09684
2018-05-25 18:40:00+00:00,300.0564,4.3,14.08,47.84626,-54.09684
2018-05-25 18:50:00+00:00,308.0797,4.3,14.08,47.84626,-54.09684
2018-05-25 19:00:00+00:00,310.8313,4.3,14.0,47.84626,-54.09684
2018-05-25 19:10:00+00:00,318.9196,4.3,13.92,47.84626,-54.09684
2018-05-25 19:20:00+00:00,326.2263,4.3,13.92,47.84626,-54.09684
2018-05-25 19:30:00+00:00,329.0546,4.3,13.92,47.84626,-54.09684
2018-05-25 19:40:00+00:00,334.5279,4.3,13.92,47.84626,-54.09684
2018-05-25 19:50:00+00:00,341.0596,4.3,13.92,47.84626,-54.09684
2018-05-25 20:00:00+00:00,341.4813,4.3,13.84,47.84626,-54.09684
2018-05-25 20:10:00+00:00,345.7696,4.3,13.76,47.84626,-54.09684
2018-05-25 20:20:00+00:00,344.3079,4.3,13.76,47.84626,-54.09684
2018-05-25 20:30:00+00:00,343.8247,4.3,13.76,47.84626,-54.09684
2018-05-25 20:40:00+00:00,345.1596,4.3,13.76,47.84626,-54.09684
2018-05-25 20:50:00+00:00,349.5096,4.3,13.76,47.84626,-54.09684
2018-05-25 21:00:00+00:00,346.613,4.3,13.68,47.84626,-54.09684
2018-05-25 21:10:00+00:00,346.433,4.3,13.6,47.84626,-54.09684
2018-05-25 21:20:00+00:00,348.5496,4.3,13.6,47.84626,-54.09684
2018-05-25 21:30:00+00:00,346.6147,4.36,13.53,47.84626,-54.09684
2018-05-25 21:40:00+00:00,342.6096,4.47,13.53,47.84626,-54.09684
2018-05-25 21:50:00+00:00,336.8997,4.59,13.53,47.84626,-54.09684
2018-05-25 22:00:00+00:00,335.6546,4.65,13.37,47.84626,-54.09684
2018-05-25 22:10:00+00:00,340.2163,4.7,13.29,47.84626,-54.09684
2018-05-25 22:20:00+00:00,336.7313,4.7,13.29,47.84626,-54.09684
2018-05-25 22:30:00+00:00,331.2913,4.7,13.29,47.84626,-54.09684
2018-05-25 22:40:00+00:00,325.5713,4.7,13.29,47.84626,-54.09684
2018-05-25 22:50:00+00:00,321.8796,4.72,13.21,47.84626,-54.09684
2018-05-25 23:00:00+00:00,316.3347,4.77,13.21,47.84626,-54.09684
2018-05-25 23:10:00+00:00,311.2664,4.78,13.05,47.84626,-54.09684
2018-05-25 23:20:00+00:00,301.8813,4.79,13.13,47.84626,-54.09684
2018-05-25 23:30:00+00:00,292.713,4.79,13.05,47.84626,-54.09684
2018-05-25 23:40:00+00:00,284.158,4.77,13.13,47.84626,-54.09684
2018-05-25 23:50:00+00:00,272.6898,4.72,13.13,47.84626,-54.09684
